Location: Barrio El Canyet
(41.4541°N, 1.9986°E)
Time: 08:34:55
(UTC+00:00)

Daily predictions for brighter satellites

Satellite Brightness Start Highest point End
(mag) Time Altitude Azimuth Time Altitude Azimuth Time Altitude Azimuth
Cosmos 2237 Rocket 4.5 16:45:24 10° W 16:48:56 17° NW 16:52:29 10° N
Cosmos 1515 Rocket 4.0 16:45:11 10° SSE 16:49:19 42° E 16:53:30 10° NNE
Cosmos 1943 3.4 16:49:56 10° S 16:55:25 55° ESE 17:00:58 10° NNE
CZ-4B R/B 3.3 16:50:20 10° SE 16:55:27 51° ENE 17:00:33 10° N
Cosmos 1603 3.8 16:50:51 10° S 16:56:23 64° ESE 17:01:57 10° NNE
Cosmos 1602 3.8 16:52:58 10° N 16:56:49 57° E 17:00:37 10° SSE
Cosmos 2369 Rocket 2.2 16:52:55 10° NNW 16:58:36 67° ENE 17:04:11 10° SSE
PAYLOAD B 4.2 16:53:12 10° SSE 16:58:45 79° ENE 17:04:19 10° NNW
Cosmos 1238 Rocket 4.5 16:55:57 10° NNE 16:59:32 22° ENE 17:03:37 10° SE
COSMO-SKYMED 1 4.0 17:00:18 10° NE 17:03:25 19° E 17:06:30 10° SE
Cosmos 1328 Rocket 3.8 17:00:01 10° SSW 17:04:18 73° W 17:08:41 10° N
Cosmos 1680 Rocket 4.2 17:00:16 10° SSE 17:05:00 35° E 17:09:47 10° NE
NOSS 3-2 (C) 3.9 17:00:51 10° S 17:05:50 36° ESE 17:11:22 10° NE
AQUARIUS 4.3 17:02:00 10° SSE 17:06:22 53° ENE 17:10:45 10° N
Cosmos 44 Rocket 3.8 17:02:43 10° NNW 17:07:40 42° NE 17:12:36 10° ESE
H-2A R/B 4.2 17:05:58 10° S 17:09:38 43° W 17:13:23 10° NNW
USA 81 4.2 17:05:16 10° N 17:10:35 85° W 17:15:52 10° S
H-2A R/B 3.8 17:10:51 11° ENE 17:11:05 11° ENE 17:12:30 10° NE
CZ-4B R/B 2.1 17:11:06 10° NE 17:13:58 30° E 17:16:52 10° SSE
Cosmos 1933 Rocket 3.6 17:10:40 10° N 17:15:06 60° E 17:19:28 10° SSE
OE (NEXTSAT) 4.2 17:12:25 10° WNW 17:15:53 78° NNE 17:19:19 10° ESE
Meteor 1-4 Rocket 3.4 17:13:17 10° SSW 17:16:45 50° WNW 17:20:11 10° N
BREEZE-M DEB (TANK) 3.1 17:12:54 10° SW 17:17:30 38° SSE 17:19:41 15° E
CZ-2C R/B 4.1 17:17:16 10° ESE 17:20:38 19° ENE 17:23:57 10° NNE
Cosmos 2228 Rocket 3.4 17:18:27 10° SSE 17:22:47 47° E 17:27:05 10° NNE
Cosmos 2112 Rocket 4.3 17:21:48 10° S 17:26:50 47° ESE 17:31:55 10° NNE
Nadezhda 3 Rocket 4.1 17:21:18 10° SSE 17:27:28 55° E 17:33:40 10° NNE
H-2A R/B 2.7 17:23:37 10° N 17:27:49 58° WNW 17:32:06 10° SSW
NOSS 3-2 (A) 3.3 17:22:40 10° SSW 17:28:14 89° WNW 17:34:34 10° NE
Cosmos 1666 3.6 17:25:42 10° NNE 17:28:59 26° ENE 17:32:15 10° SE
Cosmos 2056 Rocket 4.3 17:24:44 10° N 17:29:19 28° ENE 17:33:56 10° ESE
Cosmos 1656 Rocket 3.6 17:24:16 10° NNW 17:29:52 67° ENE 17:35:21 10° SSE
Cosmos 1939 Rocket 3.3 17:26:59 10° SE 17:30:34 36° ENE 17:34:13 10° N
Envisat 4.3 17:27:08 10° S 17:31:57 43° W 17:36:48 10° NNW
Cosmos 1500 3.1 17:30:29 10° N 17:34:19 69° E 17:38:08 10° SSE
Cosmos 1821 Rocket 4.0 17:28:32 10° N 17:34:46 60° E 17:41:02 10° SSE
Cosmos 1782 4.2 17:32:55 10° SSW 17:36:39 39° WNW 17:40:25 10° N
USA 281 4.1 17:33:03 10° ESE 17:38:16 27° NE 17:43:33 10° N
Cosmos 1437 Rocket 3.3 17:36:18 10° SSE 17:39:55 36° E 17:41:51 22° NE
USA 215 4.2 17:36:51 18° ENE 17:40:37 30° SE 17:46:11 10° S
IRS-1C Rocket 4.4 17:35:52 10° SE 17:40:49 44° ENE 17:45:49 10° N
CZ-4 R/B 2.9 17:42:46 19° NE 17:42:46 19° NE 17:44:35 10° NNE
USA 276 2.1 17:38:59 10° SW 17:42:10 76° SSE 17:43:26 33° ENE
BREEZE-M DEB (TANK) 3.7 17:32:11 10° SW 17:43:23 88° SSE 17:45:38 25° ENE
Hubble Space Telescope 3.3 17:41:55 10° SSW 17:43:36 12° S 17:45:17 10° SSE
Cosmos 1624 Rocket 4.4 17:40:18 10° N 17:45:14 38° ENE 17:50:05 10° SE
Cosmos 158 Rocket 4.0 17:41:10 10° SSW 17:46:07 75° WNW 17:51:00 10° NNE
USA 238 DEB 3.8 17:43:32 10° SW 17:50:05 76° NW 17:56:08 14° NNE
USA 238 3.7 17:43:37 10° SW 17:50:11 77° NW 17:56:13 14° NNE
Cosmos 1869 Rocket 3.6 17:46:15 10° N 17:50:41 59° E 17:55:04 10° SSE
Okean O Rocket 2.5 17:46:30 10° S 17:50:44 50° W 17:55:03 10° NNW
SKYMED 2 3.5 17:47:36 11° NNE 17:51:44 63° ESE 17:56:02 10° S
Cosmos 371 Rocket 3.4 17:47:01 10° N 17:51:46 49° ENE 17:56:27 10° SE
SMAP 4.4 17:48:32 10° S 17:52:57 43° W 17:57:24 10° NNW
Meteor 1-27 Rocket 3.8 17:49:32 10° SSE 17:54:51 51° E 18:00:15 10° NNE
SL-8 R/B 3.7 17:51:49 10° SW 17:56:33 69° SSE 17:58:34 34° ENE
Okean-O 3.0 17:55:38 10° SE 17:59:44 39° ENE 18:03:52 10° N
Cosmos 1689 Rocket 3.0 18:01:36 34° SSE 18:01:36 34° SSE 18:03:34 10° S
Meteor 1-10 Rocket 4.2 17:57:22 10° SSW 18:02:59 82° W 18:08:35 10° N
SL-24 DEB 4.4 17:58:44 10° N 18:03:27 77° W 18:08:05 10° SSW
CZ-4 R/B 4.3 18:00:36 10° SSE 18:04:40 63° ENE 18:08:46 10° N
Lacrosse 4 Rocket 1.6 18:01:39 10° SW 18:05:39 64° WNW 18:07:52 26° NNE
PSLV R/B 3.8 18:06:03 39° NE 18:07:21 60° E 18:11:21 10° S
ISS -3.4 18:07:07 10° NW 18:10:01 51° N 18:10:01 51° N
DEBRIS 3.8 17:59:49 10° WNW 18:11:01 53° N 18:12:15 41° ENE
ATLAS 3B R/B 3.3 18:06:09 10° S 18:11:47 31° ESE 18:12:26 31° E
Cosmos 2084 4.2 18:07:55 10° SW 18:12:05 50° NW 18:14:09 27° NNE
USA 267 4.2 18:11:20 25° NE 18:13:05 28° NNE 18:18:27 10° NW
Cosmos 1812 4.2 18:11:07 10° SSW 18:14:41 37° WNW 18:18:17 10° N
YAOGAN 1 4.1 18:18:51 22° N 18:18:51 22° N 18:20:32 10° N
Cosmos 1605 Rocket 4.0 18:16:01 10° N 18:21:56 50° ENE 18:27:51 10° SSE
ERS-2 3.6 18:20:27 14° N 18:23:14 37° WNW 18:26:37 10° SW
X-37B 1.8 18:20:26 10° WNW 18:22:35 37° NW 18:22:35 37° NW
Cosmos 1461 4.3 18:20:24 10° WSW 18:24:44 39° NW 18:27:07 23° N
Cosmos 1339 Rocket 4.4 18:20:26 10° S 18:26:36 67° E 18:32:10 14° NNE
Cosmos 332 Rocket 3.6 18:24:09 10° NNW 18:28:58 74° ENE 18:29:58 54° SE
CENTAUR R/B 3.0 18:27:50 10° SW 18:33:35 55° NW 18:37:33 25° NNE
COSMO-SKYMED 1 3.9 18:36:11 13° N 18:39:42 38° WNW 18:43:42 10° SW
Cosmos 1707 Rocket 4.0 18:39:32 10° SSW 18:43:53 59° W 18:44:53 46° NNW
CZ-4B R/B 4.4 18:44:29 10° NW 18:45:55 13° WNW 18:47:22 10° W
ATLAS CENTAUR R/B 3.6 18:45:17 10° SSW 18:45:57 14° S 18:45:57 14° S
H-2A R/B 2.7 18:51:29 43° N 18:51:29 43° N 18:54:51 10° NNW
MOS 1 Rocket 4.0 18:52:15 29° N 18:55:01 63° WNW 19:00:11 10° SSW
NOSS 3-2 (C) 4.4 18:51:16 10° WSW 18:56:35 39° NW 18:59:03 28° N
CZ-2C R/B 3.8 18:55:26 10° S 19:00:12 48° W 19:04:50 10° NNW
CZ-4 R/B 4.1 19:12:48 10° SSW 19:18:48 15° NW 19:19:41 10° NW
USA 281 3.4 19:19:59 42° S 19:22:16 66° WSW 19:28:49 10° NNW
USA 215 3.3 19:24:13 76° WNW 19:24:13 76° WNW 19:30:29 10° WSW
Cosmos 2344 4.3 19:46:51 10° SSW 19:51:37 43° SSW 19:51:37 43° SSW
ATLAS 3B R/B 3.9 19:55:47 10° SW 19:59:44 35° WSW 19:59:44 35° WSW
